| time (UTC) | temp C | wind direction | speed KPH | gust KPH | rain 1hr cm | rain 24hr cm | rain mn cm | humidity % | barometer mb |
| 20260507074556 | 3 | 263 | 6.4 | 17.7 | 0.00 | 0.00 | 0.00 | 58 | 1007.9 |
| 20260507073101 | 3 | 283 | 3.2 | 20.9 | 0.00 | 0.00 | 0.00 | 58 | 1008.0 |
| 20260507071558 | 4 | 213 | 8.0 | 19.3 | 0.00 | 0.00 | 0.00 | 57 | 1008.1 |
| 20260507070100 | 4 | 215 | 6.4 | 24.1 | 0.00 | 0.00 | 0.00 | 57 | 1008.1 |
| 20260507064554 | 4 | 225 | 6.4 | 16.1 | 0.00 | 0.00 | 0.00 | 56 | 1008.0 |
| 20260507063053 | 4 | 252 | 4.8 | 12.9 | 0.00 | 0.00 | 0.00 | 55 | 1008.1 |
| 20260507061558 | 5 | 280 | 4.8 | 14.5 | 0.00 | 0.00 | 0.00 | 54 | 1008.1 |
| 20260507060058 | 5 | 205 | 3.2 | 14.5 | 0.00 | 0.00 | 0.00 | 54 | 1008.0 |
| 20260507054552 | 5 | 247 | 3.2 | 11.3 | 0.00 | 0.00 | 0.00 | 53 | 1008.4 |
| 20260507053057 | 5 | 299 | 6.4 | 19.3 | 0.00 | 0.00 | 0.00 | 53 | 1008.3 |
| 20260507051555 | 5 | 258 | 8.0 | 19.3 | 0.00 | 0.00 | 0.00 | 52 | 1008.4 |
| 20260507050058 | 5 | 270 | 6.4 | 17.7 | 0.00 | 0.00 | 0.00 | 52 | 1008.3 |
| 20260507044606 | 5 | 226 | 4.8 | 19.3 | 0.00 | 0.00 | 0.00 | 52 | 1008.4 |
| 20260507043059 | 5 | 242 | 4.8 | 20.9 | 0.00 | 0.00 | 0.00 | 51 | 1008.3 |
| 20260507041559 | 5 | 223 | 6.4 | 12.9 | 0.00 | 0.00 | 0.00 | 50 | 1008.3 |
| 20260507040054 | 6 | 269 | 6.4 | 12.9 | 0.00 | 0.00 | 0.00 | 50 | 1008.4 |
| 20260507034606 | 6 | 230 | 4.8 | 19.3 | 0.00 | 0.00 | 0.00 | 48 | 1008.4 |
| 20260507033059 | 6 | 240 | 6.4 | 17.7 | 0.00 | 0.00 | 0.00 | 47 | 1008.4 |
| 20260507031555 | 7 | 232 | 3.2 | 19.3 | 0.00 | 0.00 | 0.00 | 45 | 1008.3 |
| 20260507024600 | 8 | 229 | 4.8 | 22.5 | 0.00 | 0.00 | 0.00 | 44 | 1008.1 |
| 20260507023056 | 8 | 248 | 6.4 | 14.5 | 0.00 | 0.00 | 0.00 | 45 | 1008.1 |
| 20260507021557 | 8 | 188 | 6.4 | 14.5 | 0.00 | 0.00 | 0.00 | 45 | 1007.9 |
| 20260507020055 | 8 | 232 | 4.8 | 11.3 | 0.00 | 0.00 | 0.00 | 46 | 1008.0 |
| 20260507014556 | 9 | 242 | 3.2 | 11.3 | 0.00 | 0.00 | 0.00 | 46 | 1007.9 |
| 20260507013101 | 9 | 207 | 3.2 | 11.3 | 0.00 | 0.00 | 0.00 | 46 | 1007.9 |
| 20260507011556 | 9 | 250 | 3.2 | 11.3 | 0.00 | 0.00 | 0.00 | 47 | 1007.9 |
| 20260507010054 | 9 | 243 | 3.2 | 8.0 | 0.00 | 0.00 | 0.00 | 47 | 1007.8 |
| 20260507004556 | 10 | 233 | 3.2 | 12.9 | 0.00 | 0.00 | 0.00 | 46 | 1007.9 |
| 20260507003055 | 10 | 209 | 4.8 | 14.5 | 0.00 | 0.00 | 0.00 | 45 | 1007.7 |
| 20260507001554 | 10 | 249 | 3.2 | 14.5 | 0.00 | 0.00 | 0.00 | 45 | 1007.6 |
| 20260507000054 | 10 | 257 | 4.8 | 16.1 | 0.00 | 0.00 | 0.00 | 44 | 1007.5 |
| 20260506234600 | 10 | 243 | 1.6 | 8.0 | 0.00 | 0.00 | 0.00 | 44 | 1007.4 |
| 20260506233056 | 10 | 225 | 6.4 | 12.9 | 0.00 | 0.00 | 0.00 | 43 | 1007.3 |
| 20260506231554 | 11 | 239 | 4.8 | 14.5 | 0.00 | 0.00 | 0.00 | 43 | 1007.2 |
| 20260506230056 | 11 | 252 | 6.4 | 16.1 | 0.00 | 0.00 | 0.00 | 42 | 1007.2 |
| 20260506224607 | 11 | 240 | 4.8 | 17.7 | 0.00 | 0.00 | 0.00 | 42 | 1007.2 |
| 20260506223052 | 11 | 213 | 4.8 | 14.5 | 0.00 | 0.00 | 0.00 | 41 | 1007.1 |
| 20260506221556 | 11 | 249 | 6.4 | 17.7 | 0.00 | 0.00 | 0.00 | 41 | 1007.2 |
| 20260506220057 | 11 | 297 | 8.0 | 17.7 | 0.00 | 0.00 | 0.00 | 41 | 1007.2 |
| 20260506214607 | 11 | 254 | 8.0 | 16.1 | 0.00 | 0.00 | 0.00 | 41 | 1007.2 |
| 20260506213057 | 11 | 225 | 4.8 | 14.5 | 0.00 | 0.00 | 0.00 | 41 | 1007.3 |
| 20260506211555 | 11 | 268 | 6.4 | 19.3 | 0.00 | 0.00 | 0.00 | 41 | 1007.2 |
| 20260506210058 | 12 | 279 | 4.8 | 16.1 | 0.00 | 0.00 | 0.00 | 42 | 1007.2 |
| 20260506204559 | 12 | 231 | 4.8 | 12.9 | 0.00 | 0.00 | 0.00 | 41 | 1007.2 |
| 20260506203056 | 12 | 296 | 3.2 | 16.1 | 0.00 | 0.00 | 0.00 | 40 | 1007.2 |
| 20260506201556 | 12 | 327 | 4.8 | 16.1 | 0.00 | 0.00 | 0.00 | 40 | 1007.1 |
| 20260506200054 | 12 | 229 | 6.4 | 12.9 | 0.00 | 0.00 | 0.00 | 40 | 1007.1 |
| 20260506194604 | 12 | 250 | 4.8 | 19.3 | 0.00 | 0.00 | 0.00 | 41 | 1007.1 |
| 20260506193059 | 12 | 240 | 4.8 | 19.3 | 0.00 | 0.00 | 0.00 | 40 | 1007.1 |
| 20260506191553 | 12 | 252 | 4.8 | 14.5 | 0.00 | 0.00 | 0.00 | 39 | 1007.0 |
| 20260506190052 | 12 | 267 | 4.8 | 14.5 | 0.00 | 0.00 | 0.00 | 39 | 1007.1 |
| 20260506184556 | 12 | 269 | 0.0 | 6.4 | 0.00 | 0.00 | 0.00 | 42 | 1007.1 |
| 20260506183100 | 12 | 219 | 3.2 | 9.7 | 0.00 | 0.00 | 0.00 | 41 | 1007.4 |
| 20260506181555 | 11 | 263 | 3.2 | 11.3 | 0.00 | 0.00 | 0.00 | 41 | 1007.5 |
| 20260506180055 | 11 | 52 | 1.6 | 11.3 | 0.00 | 0.00 | 0.00 | 43 | 1007.4 |
| 20260506174553 | 11 | 247 | 3.2 | 9.7 | 0.00 | 0.00 | 0.00 | 43 | 1007.6 |
| 20260506173054 | 11 | 96 | 3.2 | 9.7 | 0.00 | 0.00 | 0.00 | 42 | 1007.6 |
| 20260506171559 | 10 | 30 | 6.4 | 14.5 | 0.00 | 0.00 | 0.00 | 43 | 1007.7 |
| 20260506170059 | 11 | 298 | 3.2 | 12.9 | 0.00 | 0.00 | 0.00 | 41 | 1007.8 |
| 20260506164600 | 11 | 165 | 6.4 | 17.7 | 0.00 | 0.00 | 0.00 | 41 | 1007.8 |
| 20260506163103 | 12 | 155 | 4.8 | 14.5 | 0.00 | 0.00 | 0.00 | 43 | 1007.8 |
| 20260506161604 | 11 | 0 | 4.8 | 14.5 | 0.00 | 0.00 | 0.00 | 43 | 1008.0 |
| 20260506160053 | 11 | 223 | 4.8 | 11.3 | 0.00 | 0.00 | 0.00 | 42 | 1007.8 |
| 20260506154612 | 9 | 0 | 1.6 | 9.7 | 0.00 | 0.00 | 0.00 | 52 | 1008.1 |
| 20260506153055 | 8 | 82 | 3.2 | 9.7 | 0.00 | 0.00 | 0.00 | 52 | 1008.3 |
| 20260506151555 | 8 | 55 | 3.2 | 8.0 | 0.00 | 0.00 | 0.00 | 53 | 1008.4 |
| 20260506150056 | 8 | 47 | 1.6 | 8.0 | 0.00 | 0.00 | 0.00 | 54 | 1008.4 |
| 20260506144602 | 8 | 0 | 0.0 | 8.0 | 0.00 | 0.08 | 0.00 | 52 | 1008.6 |
| 20260506143055 | 8 | 297 | 1.6 | 11.3 | 0.00 | 0.08 | 0.00 | 52 | 1008.8 |
| 20260506141557 | 8 | 271 | 4.8 | 14.5 | 0.00 | 0.08 | 0.00 | 54 | 1008.9 |
| 20260506140112 | 7 | 288 | 3.2 | 9.7 | 0.00 | 0.08 | 0.00 | 57 | 1008.8 |
| 20260506134558 | 7 | 278 | 4.8 | 11.3 | 0.00 | 0.08 | 0.00 | 59 | 1008.7 |
| 20260506133057 | 6 | 294 | 4.8 | 14.5 | 0.00 | 0.08 | 0.00 | 60 | 1008.7 |
| 20260506131556 | 6 | 265 | 3.2 | 9.7 | 0.00 | 0.08 | 0.00 | 64 | 1008.6 |
| 20260506130059 | 5 | 287 | 3.2 | 11.3 | 0.00 | 0.08 | 0.00 | 65 | 1008.7 |
| 20260506124557 | 5 | 216 | 1.6 | 4.8 | 0.00 | 0.08 | 0.00 | 68 | 1008.7 |
| 20260506123054 | 4 | 274 | 0.0 | 4.8 | 0.00 | 0.08 | 0.00 | 76 | 1008.7 |
| 20260506121555 | 3 | 0 | 0.0 | 3.2 | 0.00 | 0.08 | 0.00 | 81 | 1008.5 |
| 20260506120052 | 3 | 0 | 0.0 | 1.6 | 0.00 | 0.08 | 0.00 | 81 | 1008.3 |
| 20260506114600 | 2 | 0 | 0.0 | 0.0 | 0.00 | 0.08 | 0.00 | 81 | 1008.4 |
| 20260506113059 | 2 | 0 | 0.0 | 0.0 | 0.00 | 0.08 | 0.00 | 81 | 1008.2 |
| 20260506111602 | 1 | 0 | 0.0 | 0.0 | 0.00 | 0.08 | 0.00 | 82 | 1008.3 |
| 20260506110053 | 1 | 0 | 0.0 | 0.0 | 0.00 | 0.08 | 0.00 | 83 | 1008.3 |
| 20260506104558 | 0 | 0 | 0.0 | 0.0 | 0.00 | 0.08 | 0.00 | 84 | 1008.1 |
| 20260506103059 | 0 | 0 | 0.0 | 0.0 | 0.00 | 0.08 | 0.00 | 84 | 1008.1 |
| 20260506101553 | 0 | 0 | 0.0 | 0.0 | 0.00 | 0.08 | 0.00 | 83 | 1008.1 |
| 20260506100100 | 0 | 0 | 0.0 | 0.0 | 0.00 | 0.08 | 0.00 | 83 | 1008.0 |
| 20260506094555 | 0 | 0 | 0.0 | 0.0 | 0.00 | 0.08 | 0.00 | 83 | 1008.2 |
| 20260506093054 | 0 | 0 | 0.0 | 0.0 | 0.00 | 0.08 | 0.00 | 84 | 1008.1 |
| 20260506091601 | 0 | 0 | 0.0 | 0.0 | 0.00 | 0.08 | 0.00 | 84 | 1008.5 |
| 20260506090058 | 0 | 0 | 0.0 | 0.0 | 0.00 | 0.08 | 0.00 | 84 | 1008.1 |
| 20260506084554 | 0 | 0 | 0.0 | 0.0 | 0.00 | 0.08 | 0.00 | 83 | 1008.1 |
| 20260506083058 | 0 | 0 | 0.0 | 0.0 | 0.00 | 0.08 | 0.00 | 82 | 1008.0 |
| 20260506081559 | 0 | 0 | 0.0 | 0.0 | 0.00 | 0.08 | 0.00 | 81 | 1008.0 |